HISPASAT 30W-5

导读 | 星芒AI

HISPASAT 30W-5 是由欧洲航空航天公司泰雷兹阿莱尼亚宇航(现为空客防务与航天)制造的一颗通信卫星,于2005年发射,由西班牙卫星运营商Hispasat运营。该卫星位于西经30度轨道位置,主要为西班牙、葡萄牙及拉丁美洲地区提供广播、宽带和专业通信服务。HISPASAT 30W-5 采用EUTELSAT 30D的前身配置,搭载C波段和Ku波段转发器,支持电视传输、VSAT网络和企业通信应用。

基本信息
目录编号:
37264
目录名称:
HISPASAT 30W-5
国际标识:
2010-070A
轨道中心:
EARTH
卫星名称:
HISPASAT 30W-5
卫星全名:
--
卫星状态:
在轨 (已飞行5465 天)
发射日期:
2010-12-29 UTC
国别 :
西班牙 (ES)
星等 :
--
轨道信息
数据来源 国际轨道数据 AOE轨道数据
星历时间 2025-12-15T05:50:13+0800
20小时前
查看轨道信息
2025-12-13T10:00:00+0800
2天前
查看轨道信息
半长轴 42164.504km 42164.504km
偏心率 0.0002926 0.0003155
轨道倾角 0.042° 0.045°
近地点辐角 102.747° 109.336°
升交点赤经 144.642° 138.146°
平近点角 133.988° 194.536°
近地点 35774.031km 35773.066km
远地点 35798.707km 35799.672km
周期 1436.085分钟 1436.085分钟
每日圈数 1.002726 1.002726
详细信息
使用方式:
暂无
2D轨道图
3D轨道图
轨道高度分析图
轨道倾角分析图
轨道综合分析图
查看轨道综合分析图